TimeCDT,TemperatureF,Dew PointF,Humidity,Sea Level PressureIn,VisibilityMPH,Wind Direction,Wind SpeedMPH,Gust SpeedMPH,PrecipitationIn,Events,Conditions,WindDirDegrees,DateUTC
12:58 AM,47.7,44.6,89,30.12,10.0,WNW,2.3,-,N/A,,Clear,300,2013-04-06 05:58:00
1:59 AM,45.7,43.7,93,30.11,10.0,North,1.2,-,N/A,,Clear,10,2013-04-06 06:59:00
2:58 AM,43.5,43.0,98,30.10,10.0,NE,2.3,-,N/A,,Clear,40,2013-04-06 07:58:00
3:58 AM,41.7,40.8,97,30.10,10.0,NNW,2.3,-,N/A,,Clear,340,2013-04-06 08:58:00
4:58 AM,41.5,41.0,98,30.11,10.0,Calm,Calm,-,N/A,,Clear,0,2013-04-06 09:58:00
5:58 AM,40.6,40.3,99,30.12,9.0,Calm,Calm,-,N/A,,Clear,0,2013-04-06 10:58:00
6:58 AM,39.4,39.0,99,30.14,10.0,ESE,2.3,-,N/A,,Clear,110,2013-04-06 11:58:00
7:58 AM,49.6,46.0,87,30.15,10.0,Calm,Calm,-,N/A,,Clear,360,2013-04-06 12:58:00
8:55 AM,58.8,48.2,68,30.16,10.0,SSE,4.6,-,N/A,,Partly Cloudy,160,2013-04-06 13:55:00
8:58 AM,58.8,48.2,68,30.16,10.0,SSE,5.8,-,N/A,,Clear,160,2013-04-06 13:58:00
9:55 AM,63.7,47.7,56,30.17,10.0,SSE,6.9,-,N/A,,Scattered Clouds,160,2013-04-06 14:55:00
10:55 AM,67.5,45.7,46,30.19,10.0,ESE,8.1,-,N/A,,Mostly Cloudy,110,2013-04-06 15:55:00
11:55 AM,69.8,48.6,47,30.18,10.0,South,9.2,-,N/A,,Mostly Cloudy,190,2013-04-06 16:55:00
12:55 PM,69.8,47.1,44,30.16,10.0,South,5.8,-,N/A,,Mostly Cloudy,170,2013-04-06 17:55:00
1:55 PM,70.0,45.7,42,30.15,10.0,South,9.2,-,N/A,,Mostly Cloudy,170,2013-04-06 18:55:00
1:59 PM,70.0,45.7,42,30.15,10.0,South,10.4,-,N/A,,Clear,170,2013-04-06 18:59:00
2:58 PM,71.6,45.9,40,30.13,10.0,South,5.8,-,N/A,,Clear,190,2013-04-06 19:58:00
3:58 PM,72.7,45.1,37,30.12,10.0,Variable,5.8,-,N/A,,Clear,0,2013-04-06 20:58:00
4:58 PM,71.6,46.2,40,30.11,10.0,SSW,10.4,-,N/A,,Clear,200,2013-04-06 21:58:00
5:58 PM,68.5,47.8,48,30.12,10.0,SSW,8.1,-,N/A,,Clear,210,2013-04-06 22:58:00
6:58 PM,64.6,48.4,56,30.12,10.0,SSW,8.1,-,N/A,,Clear,210,2013-04-06 23:58:00
7:59 PM,59.7,48.6,67,30.12,10.0,SSW,4.6,-,N/A,,Clear,210,2013-04-07 00:59:00
8:58 PM,57.6,48.9,73,30.13,10.0,South,4.6,-,N/A,,Clear,170,2013-04-07 01:58:00
9:58 PM,55.9,49.3,78,30.13,10.0,SE,2.3,-,N/A,,Clear,130,2013-04-07 02:58:00
10:58 PM,51.8,48.2,88,30.14,10.0,SE,1.2,-,N/A,,Clear,140,2013-04-07 03:58:00
11:58 PM,49.6,47.3,92,30.12,10.0,North,3.5,-,N/A,,Clear,10,2013-04-07 04:58:00